Regional Weather Roundup
Issued by NWS

Home | Current Version | Previous Version | Graphics & Text | Print | Product List | Glossary On
Versions: 1 2 3 4 5 6 7 8 9 10 11 12 13 14 15 16 17 18 19 20 21 22 23 24 25 26 27 28 29 30 31 32 33 34 35 36 37 38 39 40 41 42 43 44 45 46 47 48 49 50
000
ASUS43 KMPX 300601
RWRMN
WEATHER ROUNDUP FOR MINNESOTA
NATIONAL WEATHER SERVICE TWIN CITIES/CHANHASSEN MN
100 AM CDT TUE MAY 30 2017


NOTE: "FAIR" INDICATES FEW OR NO CLOUDS BELOW 12,000 FEET WITH NO
SIGNIFICANT WEATHER AND/OR OBSTRUCTIONS TO VISIBILITY. N/A MEANS
CURRENT SKY AND/OR WEATHER CONDITIONS ARE NOT AVAILABLE.

MNZ060>063-068>070-300700-
   Twin Cities Metro

CITY           SKY/WX    TMP DP  RH WIND       PRES   REMARKS
TWIN CITIES    CLOUDY    56  45  66 W9        29.87S
6HR MIN TEMP:  56; 6HR MAX TEMP:  63;

ST PAUL        CLOUDY    56  46  69 W8        29.87S
CRYSTAL        CLOUDY    55  43  63 W8        29.86R
BLAINE         PTCLDY    55  46  71 W7        29.86S
LAKEVILLE      CLOUDY    52  46  82 W8        29.88S
EDEN PRAIRIE   CLOUDY    55  45  68 W6        29.87S
6HR MIN TEMP:  55; 6HR MAX TEMP:  63;

SOUTH ST PAUL  CLOUDY    55  45  69 W3        29.86S
LAKE ELMO      CLOUDY    52  46  82 W6        29.87S
$$
MNZ001>005-007-008-013>017-022>024-027-028-300700-
   Northwest Minnesota

CITY           SKY/WX    TMP DP  RH WIND       PRES   REMARKS
BEMIDJI        DRIZZLE   42  40  93 NW13      29.84S
HALLOCK        CLOUDY    45  43  93 NW10      29.89S
ROSEAU         RAIN      43  39  87 NW10      29.85S
WARROAD        DRIZZLE   43  39  87 W7        29.84S
THIEF RVR FALL LGT RAIN  45  43  93 NW13      29.89S
CROOKSTON      CLOUDY    45  45 100 N16       29.91S FOG
FOSSTON        DRIZZLE   43  41  93 NW9       29.88S
DETROIT LAKES  CLOUDY    46  43  87 NW14      29.90S
MOORHEAD       CLOUDY    48  43  81 N9        29.93S
PARK RAPIDS    CLOUDY    47  40  76 NW15      29.85S
MAHNOMEN       CLOUDY    45  43  93 NW15      29.88S
$$
MNZ006-009>011-018-025>026-300700-
   North Central Minnesota

CITY           SKY/WX    TMP DP  RH WIND       PRES   REMARKS
BAUDETTE       LGT RAIN  43  43 100 W10       29.80S
FLAG ISLAND    CLOUDY    45  43  93 NW16      29.79F
INTL FALLS     CLOUDY    46  39  76 W6        29.77S
6HR MIN TEMP:  46; 6HR MAX TEMP:  52;

WASKISH        CLOUDY    45  39  81 NW14      29.82S
BIG FORK       CLOUDY    46  37  71 CALM      29.79S
LONGVILLE      CLOUDY    45  43  93 W8        29.82S
GRAND RAPIDS   CLOUDY    45  42  89 NW13      29.81S
CRANE LAKE     CLOUDY    45  41  87 W3        29.77S
ORR            CLOUDY    46  37  71 NW10G18   29.74F
COOK           CLOUDY    46  39  76 W8        29.77S
WALKER         CLOUDY    43  41  94 NW10G21   29.83S FOG
$$
MNZ012-019>021-037-300700-
   Northeast Minnesota

CITY           SKY/WX    TMP DP  RH WIND       PRES   REMARKS
DULUTH         LGT RAIN  49  46  90 NW8       29.76R
6HR MIN TEMP:  49; 6HR MAX TEMP:  55; 6HR PCP: TRACE;

ELY            CLOUDY    46  39  76 W8        29.74S
HIBBING        CLOUDY    46  40  79 NW12      29.77S
EVELETH        CLOUDY    48  36  64 NW6       29.77S
DULUTH HARBOR  CLOUDY    54  48  82 W18       29.77S
TWO HARBORS    CLOUDY    54  45  71 W6        29.73S
SILVER BAY     CLOUDY    52  45  76 CALM      29.72S
GRAND MARAIS     N/A     48  41  76 W7        29.68S
G MARAIS ARPRT CLOUDY    46  37  71 W8        29.69R
$$
MNZ029>031-032-039>041-046>048-054>057-064-300700-
   West Central Minnesota

CITY           SKY/WX    TMP DP  RH WIND       PRES   REMARKS
FERGUS FALLS   CLOUDY    48  45  87 NW9       29.91R
WHEATON        CLOUDY    54  43  66 W6        29.94F
MORRIS         CLOUDY    54  46  76 NW7       29.91S
ALEXANDRIA     CLOUDY    50  45  83 NW14      29.91R
ELBOW LAKE     CLOUDY    51  46  85 NW8       29.92S
WADENA         CLOUDY    46  41  81 NW16G22   29.87S
GLENWOOD       CLOUDY    52  45  76 NW16      29.91R
APPLETON       CLOUDY    52  45  76 W5        29.92S
BENSON         CLOUDY    54  46  76 N5        29.93S
ORTONVILLE     CLOUDY    55  43  62 NW9       29.93S
MADISON        CLOUDY    57  46  67 W8        29.94S
WILLMAR        CLOUDY    54  46  76 W10       29.93R
$$
MNZ033>034-036-042>043-049>051-058-059-300700-
   Central Minnesota

CITY           SKY/WX    TMP DP  RH WIND       PRES   REMARKS
ST CLOUD       MOCLDY    51  48  89 W10       29.86F
6HR MIN TEMP:  51; 6HR MAX TEMP:  59; 6HR PCP:  0.07;

SAUK CENTRE    CLOUDY    50  46  83 W9        29.89S
PAYNESVILLE    PTCLDY    47  44  87 W8        29.90S
AITKIN         CLOUDY    48  41  76 W7        29.80F
PINE RIVER     CLOUDY    48  43  81 W5        29.87S
BRAINERD       CLOUDY    49  41  74 NW12G22   29.84S
STAPLES        CLOUDY    48  39  71 NW17      29.86S
LONG PRAIRIE   CLOUDY    50  45  81 W9        29.88S
LITTLE FALLS   CLOUDY    50  43  76 W10       29.86S
LITCHFIELD     CLEAR     54  46  76 W7        29.90S
BUFFALO        CLEAR     52  45  75 W7        29.89S
MAPLE LAKE     MOCLDY    53  48  81 W6        29.88F
HUTCHINSON     CLOUDY    52  47  81 W9        29.91S
$$
MNZ037-044-045-052-053-300700-
   East Central Minnesota

CITY           SKY/WX    TMP DP  RH WIND       PRES   REMARKS
PRINCETON      PTCLDY    52  48  87 W5        29.86S
MORA           CLOUDY    50  43  76 W8        29.85S
CAMBRIDGE      MOCLDY    54  45  71 SW3       29.83F
RUSH CITY      MOCLDY    51  45  80 W6        29.84S
MOOSE LAKE     CLOUDY    50  45  81 W8        29.78S
HINCKLEY       CLOUDY    50  46  87 SW8       29.81F
CLOQUET        CLOUDY    48  41  76 W10G17    29.78S
MCGREGOR       CLOUDY    50  41  71 NW12      29.81S
$$
MNZ071>073-080-081-089-090-097-098-300700-
   Southwest Minnesota

CITY           SKY/WX    TMP DP  RH WIND       PRES   REMARKS
MONTEVIDEO     CLOUDY    54  45  71 CALM      29.93S
CANBY          CLOUDY    55  44  65 CALM      29.96S
MARSHALL       CLOUDY    53  44  71 W10       29.95F
REDWOOD FALLS  CLOUDY    54  42  64 W8        29.93S
OLIVIA         CLOUDY    54  45  71 W7        29.92S
PIPESTONE      MOCLDY   N/A N/A N/A W5          N/A
WINDOM         CLEAR     48  45  87 W7        29.96F
WORTHINGTON    CLEAR     47  42  83 W8        29.99S
JACKSON        CLEAR     50  43  76 CALM      29.98R
TRACY          CLOUDY    54  45  72 W6        29.96S
SLAYTON        CLEAR     49  42  74 W10       29.99S
$$
MNZ065>067-074>077-082>085-091>093-300700-
   South Central Minnesota

CITY           SKY/WX    TMP DP  RH WIND       PRES   REMARKS
MANKATO        MOCLDY    51  45  79 W8        29.93S
NEW ULM        CLOUDY    52  45  76 W8        29.93S
FAIRMONT       CLEAR     51  47  86 W10       29.96S
GLENCOE        MOCLDY    54  48  78 W7        29.90S
FARIBAULT      CLOUDY    54  46  76 SW9       29.90F
OWATONNA       CLEAR     52  45  76 SW7       29.91F
WASECA         CLEAR     48  45  87 SW7       29.93F
ALBERT LEA     CLEAR     54  48  82 W5        29.93S
$$
MNZ078>079-086>088-094>096-300700-
   Southeast Minnesota

CITY           SKY/WX    TMP DP  RH WIND       PRES   REMARKS
ROCHESTER      CLEAR     51  47  86 W14       29.91S
6HR MIN TEMP:  50; 6HR MAX TEMP:  59; 6HR PCP: TRACE;

RED WING       PTCLDY    54  46  76 W5        29.86S
STANTON        PTCLDY    54  46  76 SW6       29.88S
DODGE CENTER   CLEAR     52  45  76 W9        29.90F
WINONA         MOCLDY    55  46  71 W8G17     29.87S
AUSTIN         CLEAR     52  46  82 W10       29.92S
PRESTON        CLEAR     51  46  82 W12       29.91R
$$
ABBREVIATIONS USED IN REMARKS
   TC - TEMPERATURES IN CELSIUS
  WCI - WIND CHILL INDEX
   HX - HEAT INDEX
  VSB - VISIBILITY
$$



USA.gov is the U.S. government's official web portal to all federal, state and local government web resources and services.